Regional Weather Roundup
Issued by NWS Upton, NY

Current Version | Previous Version | Text Only | Print | Product List | Glossary On
Versions: 1 2 3 4 5 6 7 8 9 10 11 12 13 14 15 16 17 18 19 20 21 22 23 24 25 26 27 28 29 30 31 32 33 34 35 36 37 38 39 40 41 42 43 44 45 46 47 48 49 50
000 ASUS41 KOKX 230305 RWROKX REGIONAL WEATHER ROUNDUP NATIONAL WEATHER SERVICE NEW YORK NY 1000 PM EST SAT NOV 22 2014 NOTE: "FAIR" INDICATES FEW OR NO CLOUDS BELOW 12,000 FEET WITH NO SIGNIFICANT WEATHER AND/OR OBSTRUCTIONS TO VISIBILITY. NYZ071-072-176-178-NJZ106-104-230400- NEW YORK CITY METRO AREA CITY SKY/WX TMP DP RH WIND PRES REMARKS CENTRAL PARK CLOUDY 43 19 38 VRB5 30.23F LAGUARDIA APRT CLOUDY 43 19 38 SW12 30.22S KENNEDY INTL CLOUDY 43 24 47 W13 30.24S NEWARK/LIBERTY CLOUDY 42 19 39 SW8 30.22F BRNX BOT. GARD N/A N/A N/A N/A SW6 30.21F TETERBORO CLOUDY 43 18 36 SW9 30.20F $$ NYZ177-179-078>081-230400- LONG ISLAND NEW YORK CITY SKY/WX TMP DP RH WIND PRES REMARKS FARMINGDALE MOCLDY 44 22 41 W14 30.22F ISLIP MOCLDY 43 23 45 SW13 30.20F SHIRLEY MOCLDY 44 24 45 SW14G22 30.22S WESTHAMPTON CLOUDY 44 27 51 SW18 30.22F MONTAUK POINT N/A 47 33 58 SW12G23 30.19F $$ NYZ052-065-067-230400- HUDSON VALLEY CITY SKY/WX TMP DP RH WIND PRES REMARKS WHITE PLAINS CLOUDY 42 16 34 SW6 30.18F NEWBURGH MOCLDY 39 18 41 W9 30.17S WCI 33 MONTGOMERY CLOUDY 39 17 41 S8 30.15F WCI 33 POUGHKEEPSIE CLOUDY 42 16 34 SW8 30.17F ALBANY LGT RAIN 38 25 59 S10 30.08S WCI 31 $$ NJZ001-105-106-008-010-013-015-019>022-104-230400- NEW JERSEY CITY SKY/WX TMP DP RH WIND PRES REMARKS NEWARK/LIBERTY CLOUDY 42 19 39 SW8 30.22F TETERBORO CLOUDY 43 18 36 SW9 30.20F CALDWELL CLOUDY 40 18 41 SW3 30.21F MORRISTOWN N/A 43 19 39 SW6 30.21F SOMERVILLE MOCLDY 41 19 41 CALM 30.21F SUSSEX CLOUDY 38 18 44 SW10 30.17F WCI 31 ANDOVER N/A 37 20 50 S5 30.19F WCI 33 TRENTON CLOUDY 42 21 43 SW6 30.23F MILLVILLE MOCLDY 40 26 57 VRB5 30.29S ATLANTIC CITY CLOUDY 41 26 55 SW8 30.28F WRIGHTSTOWN MOCLDY 40 22 47 SW8 30.23F TOMS RIVER MOCLDY 41 21 45 SW5 30.25F BELMAR MOCLDY 43 19 39 SW12G17 30.23F $$ PAZ047>061-062-071-230400- EASTERN PENNSYLVANIA CITY SKY/WX TMP DP RH WIND PRES REMARKS PHILADELPHIA MOCLDY 42 24 49 S9 30.27F ALLENTOWN CLOUDY 36 19 50 W5 30.22F WCI 32 SCRANTON CLOUDY 37 17 44 SW6 30.15F WCI 32 $$ CTZ002-004>006-009-010-012-RIZ004-006-007-MAZ004-011-015-230400- SOUTHERN NEW ENGLAND IN CT CITY SKY/WX TMP DP RH WIND PRES REMARKS BRADLEY INTL CLOUDY 42 17 36 S13 30.11F HARTFORD CLOUDY 41 19 41 S10 30.15F DANBURY CLOUDY 40 16 37 W7 30.18S WTRBRY/OXFORD CLOUDY 39 18 41 SW8 30.17S WCI 34 BRIDGEPORT CLOUDY 45 26 47 SW13G23 30.19S MERIDEN CLOUDY 43 17 35 SW9 30.17F NEW HAVEN CLOUDY 48 26 42 SW9G18 30.19F CHESTER MOCLDY 43 27 52 SW14 30.16F GROTON CLOUDY 45 28 51 W24G36 30.16F WILLIMANTIC CLOUDY 43 20 39 SW8G18 30.14F IN RI CITY SKY/WX TMP DP RH WIND PRES REMARKS PROVIDENCE CLOUDY 43 23 45 SW14 30.13F BLOCK ISLAND CLOUDY 46 34 61 W21G33 30.17S WESTERLY CLOUDY 45 28 51 SW17G24 30.17S IN MA CITY SKY/WX TMP DP RH WIND PRES REMARKS BOSTON CLOUDY 42 21 43 SW23G31 30.06F WORCESTER MOCLDY 37 18 46 W25G32 30.04S WCI 25 WESTFIELD LGT RAIN 41 20 43 S14 30.09S PROVINCETOWN MOCLDY 46 30 53 SW26G32 30.10F NANTUCKET CLOUDY 51 41 68 SW30G38 30.16F $$ ANZ330-335-338-340-345-350-353-355-230400- COASTAL MARINE OBSERVATIONS STATION/POSITION TIME SKY/WX TEMP WIND PRES VSBY WAVE AIR SEA DIR/SP/G HT/PER (UTC) (F) (DEG/KT/KT) (MB) (MI) (FT/S) NY HARB ENTRANCE 0300 47 56 240/ 19/ 25 1023.7 4/ 6 4S FIRE IS 0300 52 N/A 7/ 7 20S FIRE ISLAND 0300 48 54 240/ 25/ 29 1023.0 8/ 7 23SW MTP 0300 N/A 9/ 8 HUDSON CANYON 0300 53 58 250/ 25/ 29 1024.4 9/ 7 EXECUTION ROCKS 0300 45 47 240/ 16/ 21 N/A WESTERN LI SOUND 0300 46 230/ 19/ 23 N/A 2/ 3 CENTRAL LI SOUND 0200 45 50 230/ 21/ 25 N/A 4/ 5 EASTERN LI SOUND 0200 47 52 230/ 23/ 29 N/A ROBBINS REEF 0300 42 250/ 11/ 13 1022.4 $$ >>>>>>>>>>>>>>>>>>>>>>>>>>>> KEY <<<<<<<<<<<<<<<<<<<<<<<<<<< > < > SKY/WX - SKY CONDITION/PRESENT WEATHER < > TMP - TEMPERATURE IN FAHRENHEIT < > DP - DEWPOINT IN FAHRENHEIT < > RH - RELATIVE HUMIDITY IN PERCENT < > WIND - DIRECTION AND SPEED IN MPH < > PRES - MEAN SEA LEVEL PRESSURE IN INCHES OF HG < > WCI - WIND CHILL INDEX < > VSB - VISIBILITY IN MILES < > HX - HEAT INDEX < > TC - TEMPERATURE IN CELSIUS < > VRB - VARIABLE WIND DIRECTION < > < >>>>>>>>>>>>>>>>>>>>>>>>>>>> KEY <<<<<<<<<<<<<<<<<<<<<<<<<<<

USA.gov is the U.S. government's official web portal to all federal, state and local government web resources and services.